Hourly Weather Bolshie Ploty

Today, 5 August, Thursday

Time Temperature Precipitation Wind Pressure Humidity
00:00 +16°C° 0 mm 1 mps 743 mmHg 68%
01:00 +16°C° 0 mm 1 mps 743 mmHg 70%
02:00 +15°C° 0 mm 1 mps 743 mmHg 72%
03:00 +15°C° 0 mm 1 mps 743 mmHg 74%
04:00 +15°C° 0 mm 1 mps 743 mmHg 73%
05:00 +16°C° 0 mm 1 mps 743 mmHg 72%
06:00 +16°C° 0 mm 1 mps 743 mmHg 71%
07:00 +19°C° 0 mm 1 mps 743 mmHg 63%
08:00 +21°C° 0 mm 1 mps 743 mmHg 55%
09:00 +23°C° 0 mm 2 mps 743 mmHg 47%
10:00 +24°C° 0 mm 2 mps 743 mmHg 43%
11:00 +26°C° 0 mm 2 mps 742 mmHg 39%
12:00 +27°C° 0 mm 3 mps 742 mmHg 34%
13:00 +26°C° 0 mm 3 mps 742 mmHg 40%
14:00 +25°C° 0 mm 3 mps 742 mmHg 45%
15:00 +24°C° 0 mm 3 mps 742 mmHg 50%
16:00 +24°C° 0 mm 3 mps 741 mmHg 49%
17:00 +25°C° 0 mm 2 mps 741 mmHg 47%
18:00 +25°C° 0 mm 2 mps 741 mmHg 45%
19:00 +24°C° 0 mm 3 mps 740 mmHg 48%
20:00 +22°C° 0 mm 3 mps 740 mmHg 51%
21:00 +21°C° 0 mm 3 mps 740 mmHg 53%
22:00 +20°C° 0 mm 3 mps 740 mmHg 56%
23:00 +19°C° 0 mm 3 mps 740 mmHg 58%

Tomorrow, 6 August, Friday

Time Temperature Precipitation Wind Pressure Humidity
00:00 +19°C° 0 mm 2 mps 740 mmHg 61%
01:00 +19°C° 0 mm 2 mps 740 mmHg 60%
02:00 +19°C° 0 mm 2 mps 739 mmHg 60%
03:00 +18°C° 0 mm 3 mps 739 mmHg 59%
04:00 +19°C° 0 mm 3 mps 739 mmHg 57%
05:00 +19°C° 0 mm 3 mps 739 mmHg 56%
06:00 +20°C° 0 mm 3 mps 739 mmHg 54%
07:00 +22°C° 0 mm 3 mps 739 mmHg 50%
08:00 +23°C° 0 mm 4 mps 739 mmHg 45%
09:00 +26°C° 0 mm 4 mps 739 mmHg 41%
10:00 +28°C° 0 mm 5 mps 739 mmHg 36%
11:00 +30°C° 0 mm 5 mps 738 mmHg 31%
12:00 +33°C° 0 mm 6 mps 738 mmHg 26%
13:00 +34°C° 0 mm 6 mps 738 mmHg 26%
14:00 +34°C° 0 mm 6 mps 737 mmHg 26%
15:00 +35°C° 0 mm 6 mps 737 mmHg 26%
16:00 +35°C° 0 mm 5 mps 737 mmHg 27%
17:00 +35°C° 0 mm 5 mps 736 mmHg 29%
18:00 +34°C° 0 mm 4 mps 736 mmHg 30%
19:00 +30°C° 0.3 mm 4 mps 736 mmHg 41%
20:00 +28°C° 0.3 mm 4 mps 736 mmHg 52%
21:00 +25°C° 0.3 mm 4 mps 736 mmHg 63%
22:00 +23°C° 0.1 mm 4 mps 736 mmHg 67%
23:00 +22°C° 0.1 mm 3 mps 736 mmHg 71%

Day after tomorrow, 7 August, Saturday

Time Temperature Precipitation Wind Pressure Humidity
00:00 +21°C° 0.1 mm 3 mps 737 mmHg 75%
01:00 +21°C° 0.1 mm 3 mps 736 mmHg 75%
02:00 +21°C° 0.1 mm 3 mps 736 mmHg 74%
03:00 +21°C° 0.1 mm 3 mps 736 mmHg 73%
04:00 +20°C° 0.1 mm 3 mps 737 mmHg 72%
05:00 +20°C° 0.1 mm 4 mps 737 mmHg 70%
06:00 +20°C° 0.1 mm 4 mps 737 mmHg 68%
07:00 +22°C° 0.1 mm 4 mps 737 mmHg 59%
08:00 +25°C° 0.1 mm 5 mps 738 mmHg 50%
09:00 +27°C° 0.1 mm 5 mps 738 mmHg 40%
10:00 +29°C° 0 mm 5 mps 738 mmHg 38%
11:00 +30°C° 0 mm 5 mps 738 mmHg 36%
12:00 +32°C° 0 mm 5 mps 738 mmHg 34%
13:00 +32°C° 0 mm 4 mps 738 mmHg 33%
14:00 +31°C° 0 mm 3 mps 738 mmHg 33%
15:00 +30°C° 0 mm 2 mps 737 mmHg 33%
16:00 +30°C° 0 mm 2 mps 737 mmHg 36%
17:00 +29°C° 0 mm 2 mps 737 mmHg 40%
18:00 +29°C° 0 mm 2 mps 737 mmHg 44%
19:00 +27°C° 0.2 mm 2 mps 737 mmHg 50%
20:00 +25°C° 0.2 mm 2 mps 737 mmHg 57%
21:00 +22°C° 0.2 mm 3 mps 737 mmHg 63%
22:00 +23°C° 0.2 mm 2 mps 737 mmHg 63%
23:00 +23°C° 0.2 mm 2 mps 737 mmHg 62%

8 August, Sunday

Time Temperature Precipitation Wind Pressure Humidity
00:00 +23°C° 0.2 mm 2 mps 738 mmHg 62%
01:00 +21°C° 0.1 mm 2 mps 738 mmHg 65%
02:00 +20°C° 0.1 mm 2 mps 738 mmHg 67%
03:00 +20°C° 0.1 mm 2 mps 738 mmHg 70%
04:00 +20°C° 0.1 mm 2 mps 738 mmHg 75%
05:00 +19°C° 0.1 mm 2 mps 738 mmHg 81%
06:00 +19°C° 0.1 mm 2 mps 739 mmHg 86%
07:00 +20°C° 0.1 mm 3 mps 739 mmHg 83%
08:00 +21°C° 0.1 mm 3 mps 739 mmHg 80%
09:00 +22°C° 0.1 mm 3 mps 739 mmHg 78%
10:00 +24°C° 0.1 mm 3 mps 740 mmHg 72%
11:00 +25°C° 0.1 mm 4 mps 740 mmHg 67%
12:00 +26°C° 0.1 mm 4 mps 740 mmHg 61%
13:00 +27°C° 0 mm 3 mps 740 mmHg 56%
14:00 +28°C° 0 mm 3 mps 740 mmHg 51%
15:00 +29°C° 0 mm 2 mps 740 mmHg 46%
16:00 +29°C° 0 mm 3 mps 740 mmHg 45%
17:00 +29°C° 0 mm 3 mps 740 mmHg 44%
18:00 +29°C° 0 mm 4 mps 740 mmHg 43%
19:00 +26°C° 0 mm 4 mps 741 mmHg 48%
20:00 +23°C° 0 mm 4 mps 741 mmHg 52%
21:00 +21°C° 0 mm 4 mps 741 mmHg 56%
22:00 +21°C° 0 mm 3 mps 741 mmHg 58%
23:00 +20°C° 0 mm 3 mps 742 mmHg 59%

9 August, Monday

Time Temperature Precipitation Wind Pressure Humidity
00:00 +20°C° 0 mm 3 mps 742 mmHg 60%
01:00 +19°C° 0 mm 3 mps 742 mmHg 62%
02:00 +18°C° 0 mm 3 mps 742 mmHg 65%
03:00 +18°C° 0 mm 3 mps 742 mmHg 67%
04:00 +18°C° 0 mm 3 mps 742 mmHg 68%
05:00 +18°C° 0 mm 2 mps 742 mmHg 69%
06:00 +17°C° 0 mm 2 mps 742 mmHg 69%
07:00 +20°C° 0 mm 3 mps 742 mmHg 61%
08:00 +22°C° 0 mm 3 mps 742 mmHg 52%
09:00 +25°C° 0 mm 3 mps 742 mmHg 44%
10:00 +27°C° 0 mm 3 mps 742 mmHg 39%
11:00 +28°C° 0 mm 4 mps 742 mmHg 35%
12:00 +29°C° 0 mm 4 mps 742 mmHg 31%
13:00 +30°C° 0 mm 4 mps 742 mmHg 30%
14:00 +30°C° 0 mm 4 mps 742 mmHg 29%
15:00 +32°C° 0 mm 4 mps 741 mmHg 28%
16:00 +31°C° 0 mm 3 mps 741 mmHg 30%
17:00 +30°C° 0 mm 3 mps 741 mmHg 31%
18:00 +30°C° 0 mm 3 mps 741 mmHg 33%
19:00 +28°C° 0 mm 3 mps 741 mmHg 40%
20:00 +25°C° 0 mm 3 mps 741 mmHg 48%
21:00 +22°C° 0 mm 3 mps 741 mmHg 56%
22:00 +22°C° 0 mm 3 mps 741 mmHg 58%
23:00 +21°C° 0 mm 2 mps 741 mmHg 61%

10 August, Tuesday

Time Temperature Precipitation Wind Pressure Humidity
00:00 +20°C° 0 mm 2 mps 741 mmHg 64%
01:00 +20°C° 0 mm 2 mps 741 mmHg 66%
02:00 +21°C° 0 mm 1 mps 741 mmHg 68%
03:00 +20°C° 0 mm 1 mps 741 mmHg 70%
04:00 +20°C° 0 mm 1 mps 741 mmHg 70%
05:00 +20°C° 0 mm 1 mps 741 mmHg 70%
06:00 +20°C° 0 mm 1 mps 741 mmHg 70%
07:00 +22°C° 0 mm 1 mps 741 mmHg 63%
08:00 +25°C° 0 mm 1 mps 741 mmHg 56%
09:00 +27°C° 0 mm 2 mps 741 mmHg 49%
10:00 +28°C° 0 mm 2 mps 741 mmHg 45%
11:00 +29°C° 0 mm 2 mps 741 mmHg 42%
12:00 +30°C° 0 mm 2 mps 741 mmHg 38%
13:00 +30°C° 0 mm 2 mps 741 mmHg 38%
14:00 +30°C° 0 mm 2 mps 740 mmHg 37%
15:00 +31°C° 0 mm 2 mps 740 mmHg 36%
16:00 +30°C° 0 mm 3 mps 740 mmHg 39%
17:00 +29°C° 0 mm 3 mps 740 mmHg 42%
18:00 +28°C° 0 mm 4 mps 740 mmHg 46%
19:00 +27°C° 0.1 mm 3 mps 740 mmHg 53%
20:00 +25°C° 0.1 mm 3 mps 740 mmHg 60%
21:00 +24°C° 0.1 mm 2 mps 740 mmHg 67%
22:00 +23°C° 0.2 mm 2 mps 740 mmHg 72%
23:00 +21°C° 0.2 mm 2 mps 739 mmHg 78%
Show more

We Need Your Consent

Meteoprog and our Service Providers may store and access personal data such as cookies, device identifiers or other similar technologies on your device and process such data to personalise content and ads, as well as provide social media features and to analyse the traffic.

  • Store and/or access information on your device

    Cookies, device identifiers or other information can be stored or accessed on your device for the purposes indicated above.

  • Personalised ads and content, ad and content measurement, audience insights, and products development

    Ads and content can be personalised based on a profile. More data can be added to better personalise ads and content. Ad and content performance can be measured. Insights about the audience who saw the ads and content can be derived. Such data can be used to develop or improve user’s experience, systems and software.

By clicking ‘I Agree’ you will allow the use of indicated cookies, device identifiers, web beacons or other similar technologies. Your settings can be changed in the browser on your device.

For certain purposes, legitimate interests may be relied on, rather than consent. You can read more about this in our Privacy and Cookie Policy.